COSMOS 2271

导读

COSMOS 2271(宇宙2271)是独立国家联合体(CIS)发射的“宇宙”系列卫星,于1994年2月12日发射入轨。 “宇宙”系列多承担军事侦察、空间技术试验等任务,该卫星长期在近地轨道运行,作为苏联/俄罗斯航天计划的组成部分,为航天技术验证、空间环境探测等领域积累了数据,是90年代独联体航天活动的代表性载荷之一,目前已完成设计使命,继续在轨道空间运行。

基本信息
目录编号:
23002
目录名称:
COSMOS 2271
国际标识:
1994-011D
轨道中心:
EARTH
卫星名称:
COSMOS 2271
卫星全名:
--
卫星状态:
在轨 (已飞行11899 天)
发射日期:
1994-02-12 UTC
国别 :
俄罗斯(独联体) (CIS)
星等 :
--
该卫星已列入 空间交会检测服务 Space Conjunction Data Service (SCDS) ,当前飞行风险评估等级: 无高风险
轨道信息
数据来源 国际轨道数据 AOE轨道数据
星历时间 2026-09-10T18:47:42+0800
21小时前
查看轨道信息
2026-09-10T12:00:00+0800
1天前
查看轨道信息
半长轴 7786.567km 7786.566km
偏心率 0.0007129 0.0007099
轨道倾角 82.561° 82.561°
近地点辐角 9.274° 9.896°
升交点赤经 242.615° 242.796°
平近点角 350.848° 143.045°
近地点 1402.878km 1402.901km
远地点 1413.982km 1413.957km
周期 113.967分钟 113.967分钟
每日圈数 12.635247 12.63525
详细信息
使用方式:
暂无
2D轨道图
3D轨道图
轨道高度分析图
轨道倾角分析图
轨道综合分析图
查看轨道综合分析图
交会数据列表
事件ID 空间交会对象 最接近时刻(TCA) 交会距离 交会风险概率(CRP) 交会风险指数(CRI) 操作
CDM_260912-172602-218702-300224
2026-09-12T
17:26:52+0000
2.504 km
极远距离
9.993335E-7 极低风险 0.35
与全量物体交会距离演化趋势
与全量物体交会风险概率演化趋势